    C/2002 A2 (LINEAR)
Epoch 2001 Nov. 27.0 TT = JDT 2452240.5
T 2001 Dec.  9.01432 TT                                 MPC
q   4.7081788            (2000.0)            P               Q
n   0.01284868     Peri.   19.33672     -0.19110096     -0.95086787
a  18.0535971      Node    82.26857     +0.86509520     -0.28040499
e   0.7392110      Incl.   14.22991     +0.46377873     +0.13123768
P  76.71
Residuals in seconds of arc
K01BJ  704  0.2+  0.8-    K01CI  644  0.7-  0.2+    K0219  621  0.2-  0.3+
K01BJ  704  0.6+  0.8+    K0218  704  0.4-  0.0     K0219  621  0.0   0.0
K01BJ  704  0.1+  0.4-    K0218  704  0.2+  0.4+    K021A  113  0.3+  0.2-
K01BJ  704  0.7-  0.2+    K0218  704  0.7+  0.0     K021A  113  0.2-  0.1-
K01BJ  704  0.1-  0.0     K0218  704  0.3+  0.4+    K021A  113  0.1-  0.3+
K01CD  704  0.4+  0.4-    K0218  704  1.0+  0.0     K021A  113  0.3-  0.2+
K01CD  704  0.3-  0.3-    K0219  046  0.1-  0.2+    K021A  113  0.0   0.0
K01CD  704  0.3-  0.1+    K0219  046  0.2+  0.1-    K021A  046  0.3-  0.2-
K01CD  704  1.0-  0.2+    K0219  046  0.0   0.3-    K021A  046  0.1+  0.0
K01CD  704  0.7-  0.9+    K0219  046  0.1-  0.1-    K021A  046  0.2+  0.1-
K01CH  704  0.4+  0.6-    K0219  106  0.1+  0.1+    K021A  046  0.2+  0.1+
K01CH  704  0.6+  0.2-    K0219  157  1.4-  0.6+    K021A  046  0.2-  0.1+
K01CH  704  0.6+  0.5-    K0219  106  0.1-  0.1-    K021A  106  0.0   0.3-
K01CH  704  0.5+  0.4+    K0219  157  0.2-  0.0     K021A  106  0.0   0.3-
K01CH  704  0.1+  0.2+    K0219  106  0.0   0.3-    K021A  106  0.3-  0.3-
K01CI  644  0.3+  0.2+    K0219  621  0.0   0.0     K021B  696  0.1+  0.3-
K01CI  644  0.0   0.1+    K0219  621  0.2+  0.1+    K021B  696  0.0   0.1-

    C/2002 A1 (LINEAR)
Date    TT    R. A. (2000) Decl.     Delta      r     Elong.  Phase   m1    m2
2002 01 06    07 08.46   +29 39.3    3.728    4.705   172.9     1.5        18.9
2002 01 16    07 03.58   +30 06.1    3.748    4.709   166.1     2.9        19.0
2002 01 26    06 59.15   +30 27.7    3.799    4.714   155.8     4.9        19.2
2002 02 05    06 55.63   +30 43.8    3.876    4.720   145.3     6.8        19.3
2002 02 15    06 53.34   +30 54.6    3.978    4.727   134.9     8.5        19.5
2002 02 25    06 52.52   +31 00.6    4.101    4.735   124.8     9.9        19.6
2002 03 07    06 53.26   +31 02.4    4.239    4.744   115.0    10.9        19.7
2002 03 17    06 55.58   +31 00.6    4.388    4.754   105.6    11.6        19.8
2002 03 27    06 59.39   +30 55.7    4.546    4.765    96.6    12.0        19.9
2002 04 06    07 04.58   +30 48.0    4.706    4.777    88.0    12.1        20.0
2002 04 16    07 11.00   +30 37.7    4.867    4.790    79.7    11.9        20.1
2002 04 26    07 18.49   +30 24.7    5.025    4.803    71.6    11.5        20.1
2002 05 06    07 26.90   +30 09.2    5.176    4.818    63.9    10.8        20.2
2002 05 16    07 36.07   +29 51.0    5.320    4.833    56.3    10.0        20.2
2002 05 26    07 45.87   +29 30.2    5.453    4.850    49.0     9.1        20.2
2002 06 05    07 56.17   +29 06.9    5.575    4.867    41.9     8.0        20.2
2002 06 15    08 06.84   +28 41.1    5.683    4.885    34.9     6.8        20.2

    C/2002 A2 (LINEAR)
Date    TT    R. A. (2000) Decl.     Delta      r     Elong.  Phase   m1    m2
2002 01 06    07 05.39   +29 33.4    3.735    4.712   173.0     1.5        17.4
2002 01 16    07 00.51   +29 59.9    3.757    4.716   165.6     3.0        17.5
2002 01 26    06 56.12   +30 21.3    3.808    4.720   155.3     5.0        17.7
2002 02 05    06 52.64   +30 37.2    3.887    4.726   144.7     6.9        17.8
2002 02 15    06 50.42   +30 48.0    3.989    4.732   134.3     8.6        18.0
2002 02 25    06 49.68   +30 54.2    4.112    4.739   124.2     9.9        18.1
2002 03 07    06 50.50   +30 56.3    4.250    4.748   114.4    11.0        18.2
2002 03 17    06 52.89   +30 55.0    4.400    4.757   105.1    11.7        18.3
2002 03 27    06 56.78   +30 50.7    4.557    4.767    96.1    12.0        18.4
2002 04 06    07 02.04   +30 43.7    4.717    4.778    87.5    12.1        18.5
2002 04 16    07 08.52   +30 34.0    4.877    4.790    79.1    11.9        18.6
2002 04 26    07 16.07   +30 21.8    5.034    4.803    71.1    11.4        18.6
2002 05 06    07 24.53   +30 06.9    5.184    4.817    63.4    10.8        18.7
2002 05 16    07 33.76   +29 49.5    5.327    4.832    55.8    10.0        18.7
2002 05 26    07 43.60   +29 29.5    5.458    4.847    48.5     9.0        18.7
2002 06 05    07 53.94   +29 06.9    5.578    4.864    41.4     7.9        18.7
2002 06 15    08 04.66   +28 41.8    5.685    4.881    34.4     6.8        18.7

     The two comets, which are obviously related, passed less than 0.4 AU from
Jupiter around 2001 July 9 and 18, respectively,

Brian G. Marsden             (C) Copyright 2002 MPC           M.P.E.C. 2002-A62

Read MPEC 2002-A61 Read MPEC 2002-A63


Our Web policy. Index to the CBAT/MPC/ICQ pages.

